�������l�o���
Date,Time,MP-1(��Sv/h),MP-2(��Sv/h),MP-3(��Sv/h),MP-4(��Sv/h),MP-5(��Sv/h),MP-6(��Sv/h),MP-7(��Sv/h),MP-8(��Sv/h),����,����(m/s),���J
2019/09/22,00:00,0.743,1.062,0.730,1.304,0.955,0.421,0.734,0.698,�k,1.7,��
2019/09/22,00:10,0.744,1.060,0.729,1.303,0.953,0.421,0.735,0.696,�k�k��,1.9,��
2019/09/22,00:20,0.746,1.061,0.730,1.307,0.953,0.421,0.736,0.696,�k�k��,1.5,��
2019/09/22,00:30,0.744,1.062,0.728,1.305,0.955,0.423,0.737,0.697,�k�k��,1.5,��
2019/09/22,00:40,0.743,1.059,0.729,1.303,0.955,0.422,0.736,0.697,�k�k��,1.1,��
2019/09/22,00:50,0.746,1.062,0.730,1.305,0.953,0.422,0.736,0.695,�k�k��,0.8,��
2019/09/22,01:00,0.745,1.061,0.730,1.306,0.955,0.421,0.735,0.696,�k��,0.8,��
2019/09/22,01:10,0.747,1.059,0.729,1.303,0.954,0.421,0.735,0.696,�k�k��,0.9,��
2019/09/22,01:20,0.745,1.060,0.730,1.306,0.952,0.421,0.736,0.697,�k��,1.4,��
2019/09/22,01:30,0.744,1.059,0.731,1.305,0.953,0.422,0.736,0.696,�k�k��,1.9,��
2019/09/22,01:40,0.747,1.061,0.730,1.308,0.954,0.421,0.737,0.697,�k��,1.9,��
2019/09/22,01:50,0.746,1.061,0.731,1.303,0.952,0.419,0.736,0.697,�k�k��,1.7,��
2019/09/22,02:00,0.746,1.061,0.730,1.304,0.952,0.422,0.735,0.696,�k�k��,1.4,��
2019/09/22,02:10,0.747,1.062,0.730,1.308,0.956,0.421,0.734,0.698,�k�k��,2.0,��
2019/09/22,02:20,0.746,1.061,0.729,1.304,0.955,0.422,0.734,0.697,�k�k��,2.3,��
2019/09/22,02:30,0.746,1.060,0.730,1.303,0.952,0.422,0.736,0.697,�k�k��,2.0,��
2019/09/22,02:40,0.747,1.059,0.728,1.307,0.955,0.421,0.736,0.695,�k��,2.8,��
2019/09/22,02:50,0.745,1.061,0.730,1.306,0.952,0.420,0.735,0.698,�k��,3.0,��
2019/09/22,03:00,0.745,1.060,0.730,1.305,0.952,0.421,0.737,0.696,�k��,2.3,��
2019/09/22,03:10,0.745,1.063,0.729,1.302,0.954,0.421,0.734,0.697,�k�k��,2.9,��
2019/09/22,03:20,0.747,1.061,0.730,1.304,0.953,0.422,0.737,0.697,�k�k��,2.3,��
2019/09/22,03:30,0.745,1.060,0.729,1.304,0.954,0.421,0.734,0.696,�k��,3.3,��
2019/09/22,03:40,0.746,1.060,0.730,1.305,0.952,0.421,0.736,0.697,�k�k��,3.0,��
2019/09/22,03:50,0.744,1.059,0.732,1.306,0.954,0.421,0.735,0.696,�k�k��,3.2,��
2019/09/22,04:00,0.745,1.060,0.730,1.307,0.954,0.420,0.734,0.697,�k�k��,3.5,��
2019/09/22,04:10,0.746,1.062,0.731,1.304,0.955,0.423,0.734,0.698,�k�k��,3.4,��
2019/09/22,04:20,0.744,1.063,0.732,1.304,0.956,0.421,0.734,0.698,�k�k��,3.4,��
2019/09/22,04:30,0.746,1.060,0.730,1.303,0.954,0.422,0.734,0.697,�k�k��,3.4,��
2019/09/22,04:40,0.745,1.060,0.731,1.305,0.953,0.421,0.734,0.697,�k,2.8,��
2019/09/22,04:50,0.747,1.062,0.729,1.303,0.953,0.422,0.736,0.696,�k,2.5,��
2019/09/22,05:00,0.744,1.059,0.729,1.306,0.953,0.422,0.735,0.698,�k��,3.4,��
2019/09/22,05:10,0.745,1.059,0.729,1.305,0.954,0.421,0.734,0.697,�k��,4.3,��
2019/09/22,05:20,0.745,1.060,0.730,1.304,0.953,0.423,0.735,0.695,�k�k��,4.2,��
2019/09/22,05:30,0.746,1.059,0.731,1.306,0.952,0.421,0.735,0.697,�k�k��,3.9,��
2019/09/22,05:40,0.744,1.059,0.729,1.304,0.951,0.421,0.738,0.697,�k�k��,3.7,��
2019/09/22,05:50,0.747,1.060,0.730,1.306,0.951,0.421,0.737,0.696,�k�k��,3.4,��
2019/09/22,06:00,0.746,1.059,0.730,1.307,0.952,0.421,0.736,0.696,�k�k��,3.4,��
2019/09/22,06:10,0.746,1.058,0.731,1.308,0.952,0.421,0.738,0.696,�k�k��,3.8,��
2019/09/22,06:20,0.747,1.060,0.730,1.306,0.954,0.420,0.737,0.697,�k�k��,4.2,��
2019/09/22,06:30,0.747,1.059,0.730,1.304,0.955,0.422,0.735,0.696,�k��,4.2,��
2019/09/22,06:40,0.746,1.062,0.731,1.305,0.955,0.421,0.736,0.698,�k��,4.1,��
2019/09/22,06:50,0.746,1.062,0.729,1.305,0.954,0.421,0.735,0.697,�k��,3.8,��
2019/09/22,07:00,0.746,1.061,0.731,1.305,0.954,0.423,0.736,0.698,�k��,3.9,��
2019/09/22,07:10,0.746,1.060,0.730,1.305,0.955,0.422,0.736,0.697,�k�k��,3.6,��
2019/09/22,07:20,0.746,1.063,0.730,1.307,0.953,0.422,0.735,0.697,�k��,3.9,��
2019/09/22,07:30,0.745,1.063,0.730,1.306,0.954,0.421,0.736,0.697,�k��,3.9,��
2019/09/22,07:40,0.748,1.058,0.731,1.306,0.954,0.422,0.735,0.697,�k��,4.1,��
2019/09/22,07:50,0.747,1.062,0.730,1.307,0.953,0.422,0.734,0.696,�k�k��,4.4,��
2019/09/22,08:00,0.744,1.061,0.733,1.305,0.954,0.422,0.737,0.696,�k�k��,4.7,��
2019/09/22,08:10,0.747,1.062,0.732,1.306,0.951,0.422,0.735,0.696,�k�k��,4.8,��
2019/09/22,08:20,0.746,1.059,0.732,1.307,0.953,0.420,0.736,0.696,�k�k��,4.6,��
2019/09/22,08:30,0.745,1.061,0.730,1.307,0.954,0.420,0.736,0.695,�k�k��,4.9,��
2019/09/22,08:40,0.746,1.057,0.731,1.303,0.955,0.421,0.735,0.695,�k,4.7,��
2019/09/22,08:50,0.746,1.059,0.732,1.305,0.954,0.420,0.735,0.696,�k�k��,4.8,��
2019/09/22,09:00,0.745,1.059,0.729,1.306,0.952,0.420,0.736,0.697,�k,3.8,�L
2019/09/22,09:10,0.744,1.057,0.731,1.306,0.954,0.420,0.735,0.695,�k,4.9,�L
2019/09/22,09:20,0.743,1.060,0.730,1.304,0.951,0.420,0.737,0.695,�k,4.4,�L
2019/09/22,09:30,0.743,1.057,0.731,1.305,0.953,0.421,0.736,0.695,�k,4.4,�L
2019/09/22,09:40,0.745,1.060,0.730,1.306,0.950,0.421,0.735,0.695,�k,4.2,�L
2019/09/22,09:50,0.742,1.059,0.731,1.304,0.953,0.420,0.736,0.695,�k,3.9,�L
2019/09/22,10:00,0.744,1.057,0.730,1.305,0.951,0.422,0.736,0.695,�k�k��,3.5,�L
2019/09/22,10:10,0.744,1.058,0.730,1.305,0.951,0.422,0.737,0.695,�k�k��,3.3,�L
2019/09/22,10:20,0.745,1.058,0.731,1.306,0.952,0.420,0.736,0.696,�k,3.2,�L
2019/09/22,10:30,0.744,1.058,0.730,1.305,0.951,0.421,0.735,0.695,�k�k��,2.9,�L
2019/09/22,10:40,0.743,1.056,0.729,1.305,0.952,0.422,0.735,0.694,�k�k��,3.1,�L
2019/09/22,10:50,0.744,1.053,0.731,1.303,0.950,0.421,0.734,0.693,�k�k��,3.3,�L
2019/09/22,11:00,0.741,1.051,0.729,1.303,0.949,0.419,0.734,0.692,�k�k��,3.6,�L
2019/09/22,11:10,0.741,1.047,0.728,1.300,0.945,0.421,0.733,0.695,�k�k��,3.5,�L
2019/09/22,11:20,0.739,1.047,0.727,1.300,0.944,0.420,0.733,0.692,�k�k��,3.3,�L
2019/09/22,11:30,0.740,1.047,0.728,1.300,0.943,0.421,0.735,0.693,�k�k��,2.3,�L
2019/09/22,11:40,0.738,1.045,0.726,1.297,0.944,0.419,0.734,0.694,�k,2.5,�L
2019/09/22,11:50,0.739,1.044,0.726,1.297,0.944,0.421,0.733,0.693,�k�k��,2.9,�L
2019/09/22,12:00,0.740,1.047,0.725,1.299,0.945,0.421,0.734,0.690,�k�k��,2.3,�L
2019/09/22,12:10,0.738,1.046,0.727,1.298,0.945,0.419,0.733,0.691,�k,2.5,�L
2019/09/22,12:20,0.737,1.045,0.725,1.295,0.944,0.420,0.733,0.693,�k,2.3,�L
2019/09/22,12:30,0.737,1.045,0.726,1.296,0.943,0.419,0.734,0.694,�k,1.5,�L
2019/09/22,12:40,0.736,1.044,0.725,1.297,0.943,0.419,0.733,0.692,�k,1.7,�L
2019/09/22,12:50,0.736,1.044,0.726,1.298,0.942,0.418,0.734,0.694,�k�k��,1.2,�L
2019/09/22,13:00,0.737,1.043,0.725,1.297,0.942,0.418,0.731,0.693,�k,1.7,�L
2019/09/22,13:10,0.735,1.042,0.725,1.295,0.944,0.418,0.732,0.693,��,2.0,�L
2019/09/22,13:20,0.735,1.043,0.724,1.295,0.940,0.420,0.732,0.690,���쓌,2.9,�L
2019/09/22,13:30,0.735,1.040,0.722,1.298,0.940,0.419,0.732,0.693,��,2.5,�L
2019/09/22,13:40,0.734,1.038,0.723,1.293,0.939,0.417,0.733,0.693,��,3.9,�L
2019/09/22,13:50,0.734,1.040,0.722,1.295,0.938,0.419,0.732,0.693,��,4.0,�L
2019/09/22,14:00,0.734,1.038,0.722,1.294,0.937,0.417,0.731,0.690,���k��,3.3,�L
2019/09/22,14:10,0.732,1.038,0.723,1.294,0.938,0.418,0.732,0.691,��,3.6,�L
2019/09/22,14:20,0.735,1.040,0.720,1.292,0.935,0.418,0.731,0.691,���k��,4.1,�L
2019/09/22,14:30,0.734,1.038,0.723,1.296,0.936,0.418,0.732,0.691,���k��,3.5,�L
2019/09/22,14:40,0.732,1.037,0.724,1.292,0.937,0.419,0.729,0.690,���k��,3.3,�L
2019/09/22,14:50,0.733,1.039,0.722,1.292,0.935,0.419,0.732,0.691,���k��,2.3,�L
2019/09/22,15:00,0.735,1.039,0.722,1.292,0.936,0.419,0.733,0.691,�k��,2.6,�L
2019/09/22,15:10,0.731,1.037,0.722,1.293,0.934,0.420,0.731,0.691,���k��,2.5,�L
2019/09/22,15:20,0.734,1.038,0.720,1.292,0.936,0.419,0.731,0.690,���k��,3.0,�L
2019/09/22,15:30,0.734,1.040,0.722,1.295,0.937,0.419,0.731,0.691,�k��,1.5,�L
2019/09/22,15:40,0.734,1.039,0.723,1.293,0.936,0.419,0.732,0.691,�k��,1.5,�L
2019/09/22,15:50,0.734,1.039,0.723,1.292,0.937,0.418,0.731,0.689,�k�k��,0.9,�L
2019/09/22,16:00,0.733,1.041,0.721,1.293,0.938,0.420,0.731,0.692,�k��,0.8,�L
2019/09/22,16:10,0.735,1.040,0.721,1.292,0.936,0.419,0.732,0.693,�k�k��,1.4,�L
2019/09/22,16:20,0.733,1.040,0.723,1.292,0.935,0.419,0.731,0.693,�k�k��,2.2,�L
2019/09/22,16:30,0.734,1.040,0.722,1.293,0.937,0.421,0.730,0.693,�k�k��,1.4,�L
2019/09/22,16:40,0.735,1.040,0.721,1.294,0.937,0.420,0.731,0.693,���k��,2.3,�L
2019/09/22,16:50,0.734,1.040,0.719,1.292,0.939,0.420,0.731,0.693,���k��,2.3,�L
2019/09/22,17:00,0.735,1.042,0.721,1.293,0.937,0.420,0.732,0.692,���k��,3.4,�L
2019/09/22,17:10,0.735,1.039,0.722,1.296,0.937,0.420,0.731,0.691,���k��,2.9,��
2019/09/22,17:20,0.735,1.038,0.720,1.291,0.936,0.419,0.730,0.690,���k��,3.3,��
2019/09/22,17:30,0.736,1.039,0.720,1.292,0.937,0.419,0.731,0.693,���k��,3.4,�L
2019/09/22,17:40,0.733,1.038,0.721,1.291,0.937,0.418,0.730,0.693,���k��,3.6,�L
2019/09/22,17:50,0.733,1.036,0.720,1.294,0.939,0.418,0.729,0.693,�k��,3.7,�L
2019/09/22,18:00,0.734,1.037,0.721,1.291,0.936,0.419,0.730,0.693,�k��,3.9,�L
2019/09/22,18:10,0.734,1.039,0.721,1.292,0.933,0.419,0.730,0.694,�k��,2.6,�L
2019/09/22,18:20,0.735,1.038,0.722,1.292,0.937,0.418,0.731,0.691,�k��,2.6,�L
2019/09/22,18:30,0.735,1.039,0.721,1.292,0.936,0.420,0.731,0.691,�k��,3.2,�L
2019/09/22,18:40,0.733,1.035,0.719,1.291,0.936,0.420,0.732,0.692,�k��,3.4,�L
2019/09/22,18:50,0.732,1.035,0.719,1.291,0.935,0.419,0.731,0.690,�k��,4.1,�L
2019/09/22,19:00,0.734,1.036,0.721,1.289,0.931,0.418,0.728,0.691,�k��,4.3,�L
2019/09/22,19:10,0.734,1.034,0.719,1.288,0.932,0.419,0.729,0.691,�k��,4.4,�L
2019/09/22,19:20,0.734,1.033,0.718,1.290,0.932,0.419,0.728,0.691,�k��,5.3,��
2019/09/22,19:30,0.732,1.033,0.718,1.286,0.931,0.417,0.727,0.690,�k��,4.9,��
2019/09/22,19:40,0.734,1.032,0.717,1.288,0.931,0.417,0.729,0.688,�k��,4.9,��
2019/09/22,19:50,0.731,1.035,0.719,1.287,0.932,0.418,0.728,0.691,�k��,4.5,��
2019/09/22,20:00,0.731,1.033,0.718,1.291,0.930,0.416,0.729,0.689,�k�k��,5.9,��
2019/09/22,20:10,0.731,1.031,0.717,1.287,0.932,0.418,0.729,0.690,�k�k��,5.2,��
2019/09/22,20:20,0.731,1.034,0.718,1.288,0.932,0.417,0.729,0.690,�k�k��,5.2,��
2019/09/22,20:30,0.733,1.033,0.718,1.286,0.930,0.417,0.729,0.691,�k�k��,5.5,��
2019/09/22,20:40,0.731,1.032,0.718,1.285,0.932,0.416,0.730,0.690,�k�k��,5.8,��
2019/09/22,20:50,0.733,1.033,0.717,1.287,0.933,0.417,0.728,0.690,�k�k��,5.4,��
2019/09/22,21:00,0.732,1.032,0.719,1.288,0.930,0.418,0.730,0.691,�k�k��,5.0,��
2019/09/22,21:10,0.732,1.032,0.717,1.288,0.931,0.417,0.731,0.691,�k�k��,5.2,��
2019/09/22,21:20,0.732,1.032,0.717,1.289,0.932,0.417,0.731,0.693,�k�k��,5.1,��
2019/09/22,21:30,0.731,1.033,0.718,1.288,0.930,0.415,0.729,0.690,�k��,4.7,��
2019/09/22,21:40,0.733,1.031,0.718,1.288,0.930,0.416,0.731,0.691,�k�k��,4.8,��
2019/09/22,21:50,0.733,1.032,0.717,1.289,0.933,0.417,0.730,0.692,�k�k��,4.3,�L
2019/09/22,22:00,0.731,1.032,0.718,1.289,0.933,0.418,0.730,0.691,�k�k��,4.9,�L
2019/09/22,22:10,0.733,1.033,0.718,1.289,0.933,0.416,0.729,0.691,�k�k��,5.0,��
2019/09/22,22:20,0.733,1.035,0.718,1.289,0.929,0.419,0.728,0.692,�k�k��,5.7,�L
2019/09/22,22:30,0.731,1.033,0.719,1.288,0.932,0.416,0.731,0.691,�k�k��,5.9,��
2019/09/22,22:40,0.733,1.033,0.717,1.289,0.931,0.418,0.730,0.692,�k�k��,7.0,��
2019/09/22,22:50,0.732,1.031,0.719,1.289,0.933,0.415,0.730,0.692,�k�k��,6.2,�L
2019/09/22,23:00,0.736,1.034,0.719,1.288,0.932,0.417,0.729,0.690,�k�k��,5.1,�L
2019/09/22,23:10,0.732,1.034,0.720,1.288,0.931,0.418,0.730,0.691,�k�k��,4.5,�L
2019/09/22,23:20,0.730,1.029,0.716,1.288,0.929,0.418,0.728,0.690,�k,4.9,�L
2019/09/22,23:30,0.728,1.023,0.717,1.289,0.927,0.416,0.729,0.689,�k�k��,4.2,�L
2019/09/22,23:40,0.726,1.020,0.717,1.286,0.928,0.416,0.729,0.689,�k�k��,4.3,�L
2019/09/22,23:50,0.726,1.019,0.715,1.285,0.927,0.416,0.727,0.687,�k,3.8,�L
